Hourly Weather Kosice

Today, 29 July, Thursday

Time Temperature Precipitation Wind Pressure Humidity
00:00 +21°C° 0 mm 1 mps 733 mmHg 76%
01:00 +21°C° 0 mm 1 mps 733 mmHg 79%
02:00 +20°C° 0 mm 1 mps 733 mmHg 83%
03:00 +19°C° 0 mm 2 mps 733 mmHg 87%
04:00 +18°C° 0 mm 2 mps 733 mmHg 91%
05:00 +20°C° 0.1 mm 2 mps 734 mmHg 86%
06:00 +21°C° 0.1 mm 2 mps 734 mmHg 81%
07:00 +23°C° 0 mm 2 mps 735 mmHg 77%
08:00 +25°C° 0 mm 2 mps 735 mmHg 69%
09:00 +27°C° 0 mm 2 mps 735 mmHg 61%
10:00 +28°C° 0 mm 2 mps 735 mmHg 53%
11:00 +28°C° 0.1 mm 2 mps 735 mmHg 54%
12:00 +28°C° 0.1 mm 2 mps 735 mmHg 54%
13:00 +28°C° 0.1 mm 2 mps 735 mmHg 55%
14:00 +29°C° 0 mm 2 mps 735 mmHg 54%
15:00 +29°C° 0 mm 2 mps 735 mmHg 53%
16:00 +29°C° 0 mm 2 mps 735 mmHg 51%
17:00 +28°C° 0 mm 2 mps 734 mmHg 57%
18:00 +26°C° 0 mm 2 mps 734 mmHg 63%
19:00 +25°C° 0 mm 2 mps 734 mmHg 68%
20:00 +23°C° 0 mm 2 mps 735 mmHg 72%
21:00 +21°C° 0 mm 2 mps 735 mmHg 75%
22:00 +20°C° 0 mm 2 mps 735 mmHg 79%
23:00 +21°C° 0 mm 1 mps 735 mmHg 80%

Tomorrow, 30 July, Friday

Time Temperature Precipitation Wind Pressure Humidity
00:00 +20°C° 0 mm 1 mps 735 mmHg 82%
01:00 +20°C° 0 mm 1 mps 735 mmHg 83%
02:00 +19°C° 0 mm 1 mps 735 mmHg 83%
03:00 +19°C° 0 mm 1 mps 735 mmHg 83%
04:00 +19°C° 0 mm 1 mps 735 mmHg 84%
05:00 +21°C° 0 mm 1 mps 735 mmHg 76%
06:00 +23°C° 0 mm 1 mps 735 mmHg 68%
07:00 +23°C° 0 mm 0 mps 735 mmHg 60%
08:00 +27°C° 0 mm 1 mps 735 mmHg 53%
09:00 +28°C° 0 mm 1 mps 735 mmHg 46%
10:00 +30°C° 0 mm 2 mps 735 mmHg 40%
11:00 +31°C° 0 mm 2 mps 735 mmHg 37%
12:00 +33°C° 0 mm 3 mps 734 mmHg 35%
13:00 +34°C° 0 mm 3 mps 734 mmHg 32%
14:00 +34°C° 0 mm 3 mps 733 mmHg 32%
15:00 +34°C° 0 mm 3 mps 733 mmHg 31%
16:00 +35°C° 0 mm 4 mps 733 mmHg 31%
17:00 +31°C° 0 mm 3 mps 732 mmHg 39%
18:00 +29°C° 0 mm 2 mps 732 mmHg 46%
19:00 +25°C° 0 mm 0 mps 732 mmHg 54%
20:00 +25°C° 0 mm 1 mps 732 mmHg 58%
21:00 +24°C° 0 mm 1 mps 732 mmHg 61%
22:00 +23°C° 0 mm 1 mps 732 mmHg 65%
23:00 +22°C° 0 mm 1 mps 732 mmHg 68%

Day after tomorrow, 31 July, Saturday

Time Temperature Precipitation Wind Pressure Humidity
00:00 +22°C° 0 mm 1 mps 732 mmHg 71%
01:00 +21°C° 0 mm 1 mps 732 mmHg 73%
02:00 +21°C° 0 mm 1 mps 732 mmHg 75%
03:00 +20°C° 0 mm 1 mps 732 mmHg 76%
04:00 +18°C° 0 mm 0 mps 732 mmHg 77%
05:00 +22°C° 0.2 mm 1 mps 732 mmHg 74%
06:00 +23°C° 0.2 mm 1 mps 732 mmHg 71%
07:00 +24°C° 0.2 mm 1 mps 732 mmHg 67%
08:00 +26°C° 0.1 mm 1 mps 732 mmHg 59%
09:00 +28°C° 0.1 mm 2 mps 732 mmHg 51%
10:00 +30°C° 0.1 mm 3 mps 732 mmHg 43%
11:00 +31°C° 0 mm 3 mps 731 mmHg 39%
12:00 +34°C° 0 mm 3 mps 731 mmHg 36%
13:00 +35°C° 0 mm 4 mps 731 mmHg 32%
14:00 +35°C° 0 mm 5 mps 730 mmHg 34%
15:00 +34°C° 0 mm 5 mps 730 mmHg 36%
16:00 +34°C° 0 mm 6 mps 730 mmHg 38%
17:00 +29°C° 0.1 mm 5 mps 730 mmHg 53%
18:00 +26°C° 0.1 mm 4 mps 731 mmHg 67%
19:00 +21°C° 0.1 mm 3 mps 731 mmHg 82%
20:00 +20°C° 0 mm 2 mps 732 mmHg 85%
21:00 +19°C° 0 mm 2 mps 733 mmHg 88%
22:00 +18°C° 0 mm 2 mps 733 mmHg 91%
23:00 +18°C° 0 mm 2 mps 733 mmHg 91%

1 August, Sunday

Time Temperature Precipitation Wind Pressure Humidity
00:00 +18°C° 0 mm 1 mps 733 mmHg 92%
01:00 +18°C° 0 mm 1 mps 733 mmHg 92%
02:00 +18°C° 0 mm 1 mps 733 mmHg 91%
03:00 +18°C° 0 mm 1 mps 733 mmHg 90%
04:00 +18°C° 0 mm 1 mps 733 mmHg 89%
05:00 +20°C° 0 mm 1 mps 733 mmHg 81%
06:00 +20°C° 0 mm 0 mps 733 mmHg 74%
07:00 +21°C° 0 mm 0 mps 733 mmHg 66%
08:00 +25°C° 0 mm 1 mps 733 mmHg 59%
09:00 +27°C° 0 mm 2 mps 733 mmHg 52%
10:00 +29°C° 0 mm 2 mps 732 mmHg 45%
11:00 +30°C° 0 mm 3 mps 732 mmHg 42%
12:00 +33°C° 0 mm 4 mps 731 mmHg 39%
13:00 +34°C° 0 mm 5 mps 731 mmHg 36%
14:00 +34°C° 0 mm 5 mps 730 mmHg 34%
15:00 +35°C° 0 mm 5 mps 729 mmHg 32%
16:00 +35°C° 0 mm 5 mps 728 mmHg 30%
17:00 +32°C° 0.1 mm 4 mps 729 mmHg 41%
18:00 +27°C° 0.1 mm 4 mps 729 mmHg 53%
19:00 +24°C° 0.1 mm 3 mps 729 mmHg 65%
20:00 +21°C° 1.9 mm 3 mps 729 mmHg 74%
21:00 +20°C° 1.9 mm 2 mps 729 mmHg 84%
22:00 +19°C° 1.9 mm 1 mps 730 mmHg 94%
23:00 +19°C° 0 mm 1 mps 730 mmHg 94%

2 August, Monday

Time Temperature Precipitation Wind Pressure Humidity
00:00 +19°C° 0 mm 1 mps 730 mmHg 94%
01:00 +16°C° 0 mm 0 mps 730 mmHg 95%
02:00 +16°C° 0 mm 0 mps 730 mmHg 95%
03:00 +18°C° 0 mm 1 mps 730 mmHg 96%
04:00 +18°C° 0 mm 1 mps 730 mmHg 96%
05:00 +18°C° 0.1 mm 1 mps 730 mmHg 94%
06:00 +19°C° 0.1 mm 1 mps 731 mmHg 92%
07:00 +19°C° 0.1 mm 2 mps 731 mmHg 90%
08:00 +19°C° 0.1 mm 2 mps 732 mmHg 89%
09:00 +18°C° 0.1 mm 2 mps 732 mmHg 88%
10:00 +18°C° 0.1 mm 2 mps 733 mmHg 87%
11:00 +18°C° 0.2 mm 3 mps 733 mmHg 85%
12:00 +18°C° 0.2 mm 3 mps 734 mmHg 83%
13:00 +18°C° 0.2 mm 3 mps 734 mmHg 81%
14:00 +19°C° 0 mm 3 mps 734 mmHg 73%
15:00 +20°C° 0 mm 4 mps 735 mmHg 65%
16:00 +20°C° 0 mm 4 mps 735 mmHg 58%
17:00 +19°C° 0 mm 3 mps 735 mmHg 63%
18:00 +18°C° 0 mm 2 mps 735 mmHg 69%
19:00 +16°C° 0 mm 2 mps 735 mmHg 74%
20:00 +16°C° 0 mm 1 mps 735 mmHg 79%
21:00 +15°C° 0 mm 1 mps 736 mmHg 83%
22:00 +14°C° 0 mm 1 mps 736 mmHg 87%
23:00 +13°C° 0 mm 1 mps 736 mmHg 87%

3 August, Tuesday

Time Temperature Precipitation Wind Pressure Humidity
00:00 +13°C° 0 mm 1 mps 736 mmHg 88%
01:00 +13°C° 0 mm 1 mps 737 mmHg 88%
02:00 +13°C° 0 mm 1 mps 737 mmHg 88%
03:00 +13°C° 0 mm 1 mps 737 mmHg 88%
04:00 +12°C° 0 mm 0 mps 737 mmHg 89%
05:00 +14°C° 0 mm 0 mps 737 mmHg 81%
06:00 +16°C° 0 mm 0 mps 737 mmHg 73%
07:00 +18°C° 0 mm 0 mps 737 mmHg 65%
08:00 +22°C° 0 mm 1 mps 738 mmHg 59%
09:00 +23°C° 0 mm 1 mps 738 mmHg 52%
10:00 +25°C° 0 mm 2 mps 738 mmHg 46%
11:00 +26°C° 0 mm 2 mps 737 mmHg 43%
12:00 +27°C° 0 mm 2 mps 737 mmHg 40%
13:00 +28°C° 0 mm 2 mps 737 mmHg 37%
14:00 +28°C° 0 mm 2 mps 736 mmHg 38%
15:00 +27°C° 0 mm 2 mps 736 mmHg 38%
16:00 +27°C° 0 mm 2 mps 736 mmHg 39%
17:00 +26°C° 0 mm 1 mps 736 mmHg 44%
18:00 +24°C° 0 mm 1 mps 736 mmHg 49%
19:00 +22°C° 0 mm 1 mps 735 mmHg 54%
20:00 +21°C° 0 mm 1 mps 736 mmHg 58%
21:00 +20°C° 0 mm 1 mps 736 mmHg 62%
22:00 +19°C° 0 mm 1 mps 736 mmHg 66%
23:00 +19°C° 0 mm 1 mps 736 mmHg 67%
Show more

We Need Your Consent

Meteoprog and our Service Providers may store and access personal data such as cookies, device identifiers or other similar technologies on your device and process such data to personalise content and ads, as well as provide social media features and to analyse the traffic.

  • Store and/or access information on your device

    Cookies, device identifiers or other information can be stored or accessed on your device for the purposes indicated above.

  • Personalised ads and content, ad and content measurement, audience insights, and products development

    Ads and content can be personalised based on a profile. More data can be added to better personalise ads and content. Ad and content performance can be measured. Insights about the audience who saw the ads and content can be derived. Such data can be used to develop or improve user’s experience, systems and software.

By clicking ‘I Agree’ you will allow the use of indicated cookies, device identifiers, web beacons or other similar technologies. Your settings can be changed in the browser on your device.

For certain purposes, legitimate interests may be relied on, rather than consent. You can read more about this in our Privacy and Cookie Policy.